Regional Weather Roundup
Issued by NWS

Home | Current Version | Previous Version | Text Only | Print | Product List | Glossary Off
Versions: 1 2 3 4 5 6 7 8 9 10 11 12 13 14 15 16 17 18 19 20 21 22 23 24 25 26 27 28 29 30 31 32 33 34 35 36 37 38 39 40 41 42 43 44 45 46 47 48 49 50

000
ASUS43 KFSD 032102
RWRSD

WEATHER ROUNDUP FOR SOUTH DAKOTA
NATIONAL WEATHER SERVICE SIOUX FALLS SD
300 PM CST TUE MAR 03 2015

NOTE: "FAIR" INDICATES FEW OR NO CLOUDS BELOW 12,000 FEET WITH NO
SIGNIFICANT WEATHER AND/OR OBSTRUCTIONS TO VISIBILITY.


SDZ001>005-009-010-012>017-032200-
NORTHWEST AND NORTH CENTRAL SOUTH DAKOTA

CITY           SKY/WX    TMP DP  RH WIND       PRES   REMARKS
FAITH            N/A     18   0  45 NW25G33   29.97F WCI   0
MOBRIDGE       MOSUNNY   20   0  41 NW17G29   29.97R WCI   5
$$

SDZ012>016-024>037-041>051-057-063-072>074-032200-
SOUTHWEST AND SOUTH CENTRAL SOUTH DAKOTA

CITY           SKY/WX    TMP DP  RH WIND       PRES   REMARKS
RAPID CTY ARPT CLOUDY    17   5  59 N23       29.96F WCI  -1
PIERRE         PTSUNNY   19   3  49 NW21G28   30.01F WCI   3
CUSTER         CLOUDY    14   0  53 VRB6      29.77F WCI   5
ELLSWORTH AFB  PTSUNNY   17   3  55 N20       29.95F WCI   0
PHILIP         PTSUNNY   19   4  51 NW21G30   30.02F WCI   3
PINE RIDGE     CLOUDY    17   5  59 N9        29.97F WCI   6
SPEARFISH      FAIR      14  -2  48 MISG      29.94F
WINNER         CLOUDY    19   1  45 NW23G32   30.00F WCI   2
$$

SDZ004>011-016>023-039-040-032200-
NORTHEAST SOUTH DAKOTA

CITY           SKY/WX    TMP DP  RH WIND       PRES   REMARKS
ABERDEEN       PTSUNNY   15   2  56 NW25G33   29.99F WCI  -4
WATERTOWN      CLOUDY    11   2  67 NW29      29.91R HAZE    WCI -11
$$

SDZ017-020-022-023-036>040-048>070-032200-
SOUTHEAST SOUTH DAKOTA

CITY           SKY/WX    TMP DP  RH WIND       PRES   REMARKS
SIOUX FALLS    PTSUNNY   16   7  67 NW26G37   29.92S BLWGSNOWWCI  -3
HURON          MOSUNNY   16   4  59 NW28G35   30.00F WCI  -4
MITCHELL       PTSUNNY   18   7  62 NW25G31   30.01F WCI   0
YANKTON        SUNNY    N/A N/A N/A NW29G35   29.98S
$$

ABBREVIATIONS USED IN REMARKS
   TC - TEMPERATURE IN CELSIUS
  WCI - WIND CHILL INDEX
   HX - HEAT INDEX
  VSB - VISIBILITY




USA.gov is the U.S. government's official web portal to all federal, state and local government web resources and services.